IXPE

Last updated on Fri Sep 11 2026 00:03:32 GMT+0000 (Coordinated Universal Time)

1 49954U 21121A 26253.58336806 .00007773 00000+0 39837-3 0 9991 2 49954 0.2301 31.1514 0006750 294.1573 230.4183 15.10937403 5181
UTC large
Height (km)
Speed (km/s)
/
Latitude / Longitude
Inclination (degrees)
Orbital Period (minutes)
Azimuth
Elevation
Range (km)
Doppler Factor

Next 0 passes for location: London (51.5072 / 0.1276)

No passes found over London.
IXPE